Change the Weather History Date:

Tuesday, October 30, 2012

  Actual Average (KHFF) Record (KHFF)
Temperature  
Mean Temperature 48 °F -  
Max Temperature 93 °F 68 °F 77 °F (2006)
Min Temperature 44 °F 46 °F 28 °F (2008)
Degree Days  
Heating Degree Days 16    
Moisture  
Dew Point 33 °F    
Average Humidity 54    
Maximum Humidity 71    
Minimum Humidity 45    
Precipitation  
Precipitation 0.00 in - - ()
Sea Level Pressure  
Sea Level Pressure 29.51 in    
Wind  
Wind Speed 13 mph (WSW)    
Max Wind Speed 20 mph    
Max Gust Speed 30 mph    
Visibility 10 miles    
Events      
Averages and records for this station are not official NWS values.
T = Trace of Precipitation, MM = Missing Value Source: NWS Daily Summary

Daily Weather History Graph

Daily Weather History Graph

Search for Another Location

Airport or City:

Trip Planner

Search our weather history database for the weather conditions in past years. The results will help you decide how hot, cold, wet, or windy it might be!

Date:

Astronomy

Oct. 30, 2012 Rise Set
Actual Time 7:38 AM EDT 6:26 PM EDT
Civil Twilight 7:12 AM EDT 6:52 PM EDT
Nautical Twilight 6:42 AM EDT 7:22 PM EDT
Astronomical Twilight 6:13 AM EDT 7:51 PM EDT
Moon 6:58 PM EDT (10/30) 8:20 AM EDT (10/30)
Length of Visible Light 11h 40m
Length of Day
10h 47m
Full, 99% of the Moon is Illuminated
Oct 30
Full
Nov 6
Last Quarter
Nov 13
New
Nov 20
First Quarter
Nov 28
Full

Hourly Weather History & Observations

Time (EDT) Temp. Windchill Dew Point Humidity Pressure Visibility Wind Dir Wind Speed Gust Speed Precip Events Conditions
12:15 AM 47.3 °F - 34.0 °F 60% 29.45 in 10.0 mi West 12.7 mph 17.3 mph N/A   Mostly Cloudy
12:35 AM 47.3 °F - 33.8 °F 59% 29.45 in 10.0 mi West 12.7 mph 17.3 mph N/A   Mostly Cloudy
12:55 AM 47.5 °F - 33.6 °F 59% 29.44 in 10.0 mi West 10.4 mph - N/A   Overcast
1:15 AM 47.8 °F - 32.7 °F 56% 29.43 in 10.0 mi WSW 12.7 mph 24.2 mph N/A   Overcast
1:35 AM 48.4 °F - 32.2 °F 54% 29.42 in 10.0 mi West 13.8 mph - N/A   Overcast
1:55 AM 48.4 °F - 32.0 °F 53% 29.42 in 10.0 mi West 15.0 mph 23.0 mph N/A   Overcast
2:15 AM 48.4 °F - 31.8 °F 53% 29.41 in 10.0 mi West 15.0 mph 24.2 mph N/A   Overcast
2:35 AM 48.4 °F - 31.3 °F 52% 29.42 in 10.0 mi West 19.6 mph 26.5 mph N/A   Overcast
2:55 AM 48.4 °F - 31.5 °F 52% 29.41 in 10.0 mi West 15.0 mph 26.5 mph N/A   Overcast
3:15 AM 48.2 °F - 31.3 °F 52% 29.41 in 10.0 mi West 13.8 mph 27.6 mph N/A   Overcast
3:35 AM 48.2 °F - 30.7 °F 51% 29.42 in 10.0 mi West 18.4 mph 27.6 mph N/A   Overcast
3:55 AM 48.2 °F - 30.0 °F 49% 29.42 in 10.0 mi West 11.5 mph 26.5 mph N/A   Overcast
4:15 AM 47.7 °F - 31.6 °F 54% 29.42 in 10.0 mi West 12.7 mph 17.3 mph N/A   Overcast
4:35 AM 47.5 °F - 32.0 °F 55% 29.42 in 10.0 mi WSW 10.4 mph 18.4 mph N/A   Overcast
4:55 AM 47.3 °F - 32.0 °F 55% 29.43 in 10.0 mi West 10.4 mph 18.4 mph N/A   Overcast
5:15 AM 46.9 °F - 32.0 °F 56% 29.43 in 10.0 mi WSW 13.8 mph 18.4 mph N/A   Overcast
5:35 AM 46.9 °F - 31.8 °F 56% 29.44 in 10.0 mi West 15.0 mph 19.6 mph N/A   Overcast
5:55 AM 46.8 °F - 31.8 °F 56% 29.44 in 10.0 mi WSW 9.2 mph 18.4 mph N/A   Overcast
6:15 AM 46.8 °F - 31.6 °F 56% 29.44 in 10.0 mi West 13.8 mph 19.6 mph N/A   Overcast
6:35 AM 46.8 °F - 31.1 °F 55% 29.45 in 10.0 mi West 12.7 mph 18.4 mph N/A   Overcast
6:55 AM 46.8 °F - 30.9 °F 54% 29.45 in 10.0 mi WSW 16.1 mph 23.0 mph N/A   Overcast
7:15 AM 46.9 °F - 30.7 °F 53% 29.45 in 10.0 mi WSW 12.7 mph 20.7 mph N/A   Overcast
7:35 AM 47.1 °F - 30.9 °F 53% 29.46 in 10.0 mi West 16.1 mph 20.7 mph N/A   Overcast
7:55 AM 47.1 °F - 30.9 °F 53% 29.46 in 10.0 mi WSW 10.4 mph - N/A   Overcast
8:15 AM 46.6 °F - 31.5 °F 56% 29.47 in 10.0 mi WSW 10.4 mph - N/A   Overcast
8:35 AM 46.6 °F - 31.8 °F 56% 29.47 in 10.0 mi WSW 11.5 mph - N/A   Scattered Clouds
8:55 AM 46.8 °F - 32.0 °F 57% 29.47 in 10.0 mi WSW 11.5 mph 18.4 mph N/A   Scattered Clouds
9:15 AM 47.1 °F - 32.0 °F 56% 29.48 in 10.0 mi WSW 12.7 mph 16.1 mph N/A   Clear
9:35 AM 47.7 °F - 32.4 °F 55% 29.49 in 10.0 mi WSW 11.5 mph - N/A   Clear
9:55 AM 48.2 °F - 32.9 °F 55% 29.49 in 10.0 mi WSW 12.7 mph - N/A   Scattered Clouds
10:15 AM 48.7 °F - 33.1 °F 55% 29.49 in 10.0 mi WSW 9.2 mph 18.4 mph N/A   Scattered Clouds
10:35 AM 49.1 °F - 32.9 °F 54% 29.49 in 10.0 mi WSW 12.7 mph 18.4 mph N/A   Scattered Clouds
10:55 AM 49.3 °F - 32.9 °F 53% 29.49 in 10.0 mi WSW 13.8 mph 18.4 mph N/A   Mostly Cloudy
11:15 AM 50.2 °F - 32.7 °F 51% 29.49 in 10.0 mi WSW 17.3 mph 21.9 mph N/A   Scattered Clouds
11:35 AM 51.6 °F - 32.9 °F 49% 29.49 in 10.0 mi West 15.0 mph 18.4 mph N/A   Scattered Clouds
11:55 AM 52.2 °F - 32.7 °F 48% 29.50 in 10.0 mi WSW 18.4 mph 23.0 mph N/A   Scattered Clouds
12:15 PM 52.2 °F - 32.2 °F 47% 29.50 in 10.0 mi West 12.7 mph 25.3 mph N/A   Mostly Cloudy
12:35 PM 52.0 °F - 32.2 °F 47% 29.50 in 10.0 mi West 13.8 mph 29.9 mph N/A   Overcast
12:55 PM 52.5 °F - 32.0 °F 46% 29.50 in 10.0 mi West 13.8 mph 21.9 mph N/A   Overcast
1:15 PM 53.2 °F - 32.7 °F 46% 29.50 in 10.0 mi WSW 15.0 mph 23.0 mph N/A   Mostly Cloudy
1:35 PM 52.9 °F - 32.2 °F 45% 29.50 in 10.0 mi WNW 17.3 mph 23.0 mph N/A   Mostly Cloudy
1:55 PM 52.2 °F - 32.5 °F 47% 29.50 in 10.0 mi West 17.3 mph 23.0 mph N/A   Mostly Cloudy
2:15 PM 52.9 °F - 32.9 °F 47% 29.49 in 10.0 mi WSW 12.7 mph 19.6 mph N/A   Overcast
2:35 PM 53.1 °F - 32.7 °F 46% 29.50 in 10.0 mi WSW 13.8 mph 23.0 mph N/A   Mostly Cloudy
2:55 PM 52.7 °F - 32.7 °F 47% 29.50 in 10.0 mi WSW 13.8 mph 20.7 mph N/A   Mostly Cloudy
3:15 PM 52.2 °F - 32.9 °F 48% 29.50 in 10.0 mi WSW 10.4 mph 19.6 mph N/A   Mostly Cloudy
3:35 PM 52.5 °F - 33.1 °F 48% 29.50 in 10.0 mi WSW 8.1 mph 16.1 mph N/A   Overcast
3:55 PM 52.7 °F - 33.6 °F 48% 29.51 in 10.0 mi WSW 8.1 mph - N/A   Mostly Cloudy
4:15 PM 53.1 °F - 34.3 °F 49% 29.52 in 10.0 mi West 11.5 mph - N/A   Mostly Cloudy
4:35 PM 53.1 °F - 33.4 °F 47% 29.52 in 10.0 mi West 10.4 mph 16.1 mph N/A   Mostly Cloudy
4:55 PM 52.9 °F - 34.3 °F 49% 29.53 in 10.0 mi West 6.9 mph - N/A   Overcast
5:15 PM 52.7 °F - 34.9 °F 51% 29.54 in 10.0 mi West 11.5 mph - N/A   Overcast
5:35 PM 52.5 °F - 33.1 °F 48% 29.55 in 10.0 mi West 12.7 mph 17.3 mph N/A   Overcast
5:55 PM 52.0 °F - 33.1 °F 49% 29.56 in 10.0 mi West 8.1 mph 20.7 mph N/A   Mostly Cloudy
6:15 PM 51.4 °F - 33.1 °F 50% 29.57 in 10.0 mi WNW 11.5 mph 23.0 mph N/A   Mostly Cloudy
6:35 PM 50.4 °F - 34.0 °F 53% 29.58 in 10.0 mi NW 12.7 mph 21.9 mph N/A   Mostly Cloudy
6:55 PM 48.7 °F - 35.4 °F 60% 29.60 in 10.0 mi WNW 11.5 mph 21.9 mph N/A   Overcast
7:15 PM 47.5 °F - 36.0 °F 64% 29.61 in 10.0 mi West 12.7 mph 18.4 mph N/A   Scattered Clouds
7:35 PM 47.5 °F - 35.8 °F 64% 29.62 in 10.0 mi West 9.2 mph 16.1 mph N/A   Scattered Clouds
7:55 PM 47.7 °F - 34.5 °F 60% 29.62 in 10.0 mi West 12.7 mph 19.6 mph N/A   Overcast
8:15 PM 47.8 °F - 34.2 °F 59% 29.63 in 10.0 mi West 11.5 mph 19.6 mph N/A   Mostly Cloudy
8:55 PM 47.5 °F - 34.2 °F 60% 29.64 in 10.0 mi West 8.1 mph - N/A   Scattered Clouds
9:15 PM 47.5 °F - 34.2 °F 60% 29.64 in 10.0 mi West 6.9 mph - N/A   Scattered Clouds
9:35 PM 47.3 °F - 34.3 °F 61% 29.66 in 10.0 mi West 6.9 mph - N/A   Clear
9:55 PM 47.1 °F - 34.7 °F 62% 29.66 in 10.0 mi West 6.9 mph - N/A   Clear
10:15 PM 46.8 °F - 34.7 °F 63% 29.66 in 10.0 mi West 8.1 mph - N/A   Clear
10:35 PM 46.4 °F 43.5 °F 34.7 °F 64% 29.67 in 10.0 mi SW 5.8 mph - N/A   Clear
10:55 PM 45.7 °F 42.0 °F 35.2 °F 67% 29.66 in 10.0 mi WSW 6.9 mph - N/A   Mostly Cloudy
11:35 PM 44.8 °F 41.6 °F 35.6 °F 70% 29.67 in 10.0 mi WSW 5.8 mph - N/A   Scattered Clouds
11:55 PM 44.6 °F 40.2 °F 35.6 °F 71% 29.66 in 10.0 mi WSW 8.1 mph - N/A   Scattered Clouds